Zurück zum Katalog

BREEZE-M R/B

AktivHEO
NORAD 40385·ROCKET BODY·🇷🇺 Russia

Gestartet Feb 1, 2015 von Baikonur Cosmodrome

Loading…

Nächste Überflüge (nächste 24 Stunden)

TLE

AktuellSource: Space-Track

Epoche: Sep 13, 2026, 12:30 UTC

1 40385U 15005B   26256.52118597 -.00000221  00000-0  00000-0 0  9996
2 40385  26.9556 266.5834 7568488 143.5916 305.8099  1.11107353 47135

Verfolge BREEZE-M R/B in Echtzeit mit AllMySat

Download on the App Store